Latest Weather Observations for Flinders Reef

IDQ60801

The Bureau's Brisbane Office is moving locations in November 2018. In the lead up to and during the move, some weather observations or other data on our website may be delayed or temporarily unavailable. Thank you for your patience during this transition.

Issued at 2:32 pm EST Thursday 15 November 2018 (issued every 10 minutes, with the page automatically refreshed every 10 minutes)

About weather observations | Map of weather stations | Latest weather observations for QLD | Other Formats
Station Details ID: 200783 Name: FLINDERS REEF Lat: -17.72 Lon: 148.45 Height: 2.6 m
Data from the previous 72 hours. | See also: Recent months at Flinders Reef
Date/Time
EST
Temp
°C
App
Temp
°C
Dew
Point
°C
Rel
Hum
%
Delta-T
°C
Wind Press
QNH
hPa
Press
MSL
hPa
Rain since
9am
mm
Dir  Spd
km/h
Gust
km/h
Spd
kts
Gust
kts
15/02:30pm 26.3 - - - - SE 22 28 12 15 1013.3 - -
15/02:24pm 26.2 - - - - SE 24 26 13 14 1013.3 1013.2 -
15/02:00pm 26.4 - - - - SE 22 26 12 14 1013.3 - -
15/01:30pm 26.6 - - - - SE 22 26 12 14 1013.5 - -
15/01:24pm 26.4 - - - - SE 24 - 13 - - 1013.5 -
15/01:00pm 26.4 - - - - SE 22 26 12 14 1013.9 - -
15/12:30pm 26.2 - - - - SE 22 26 12 14 1014.3 - -
15/12:24pm 26.3 - - - - SE 22 - 12 - - 1014.3 -
15/12:00pm 26.3 - - - - ESE 20 24 11 13 1014.8 - -
15/11:30am 26.3 - - - - SE 20 26 11 14 1015.1 - -
15/11:24am 26.6 - - - - SE 20 - 11 - - 1015.0 -
15/11:00am 26.2 - - - - SE 22 26 12 14 1015.3 - -
15/10:30am 26.3 - - - - SE 24 28 13 15 1015.4 - -
15/10:24am 26.3 - - - - SE 26 - 14 - - 1015.4 -
15/10:00am 26.3 - - - - SE 26 28 14 15 1015.5 - -
15/09:30am 26.3 - - - - ESE 26 30 14 16 1015.8 - -
15/09:24am 26.2 - - - - ESE 24 - 13 - - 1015.6 -
15/09:00am 26.4 - - - - ESE 26 30 14 16 1015.7 - -
15/08:30am 26.6 - - - - ESE 24 30 13 16 1015.7 - -
15/08:24am 26.3 - - - - ESE 26 - 14 - - 1015.6 -
15/08:00am 26.3 - - - - ESE 24 28 13 15 1015.5 - -
15/07:30am 26.3 - - - - E 24 28 13 15 1015.2 - -
15/07:24am 26.5 - - - - E 26 - 14 - - 1015.1 -
15/07:00am 26.4 - - - - ESE 28 32 15 17 1014.9 - -
15/06:30am 26.2 - - - - ESE 30 33 16 18 1014.5 - -
15/06:24am 26.2 - - - - ESE 32 - 17 - - 1014.3 -
15/06:00am 26.0 - - - - ESE 28 32 15 17 1014.5 - -
15/05:30am 25.8 - - - - ESE 30 35 16 19 1014.0 - -
15/05:24am 25.7 - - - - ESE 30 - 16 - - 1013.8 -
15/05:00am 25.9 - - - - E 28 35 15 19 1013.7 - -
15/04:30am 25.9 - - - - E 30 33 16 18 1013.1 - -
15/04:24am 25.8 - - - - E 26 - 14 - - 1012.9 -
15/04:00am 25.9 - - - - E 26 30 14 16 1013.0 - -
15/03:30am 25.7 - - - - E 26 32 14 17 1012.8 - -
15/03:24am 26.0 - - - - E 24 - 13 - - 1012.7 -
15/03:00am 25.7 - - - - E 28 33 15 18 1012.5 - -
15/02:30am 25.5 - - - - E 28 32 15 17 1012.5 - -
15/02:24am 25.7 - - - - E 30 - 16 - - 1012.3 -
15/02:00am 25.6 - - - - E 28 33 15 18 1012.4 - -
15/01:30am 25.9 - - - - E 32 35 17 19 1012.7 - -
15/01:24am 25.7 - - - - E 32 - 17 - - 1012.6 -
15/01:00am 25.8 - - - - E 32 39 17 21 1013.0 - -
15/12:30am 26.0 - - - - E 32 37 17 20 1013.3 - -
15/12:24am 26.0 - - - - E 32 - 17 - - 1013.3 -
15/12:00am 25.9 - - - - E 32 35 17 19 1013.7 - -
 
Date/Time
EST
Temp
°C
App
Temp
°C
Dew
Point
°C
Rel
Hum
%
Delta-T
°C
Wind Press
QNH
hPa
Press
MSL
hPa
Rain since
9am
mm
Dir  Spd
km/h
Gust
km/h
Spd
kts
Gust
kts
14/11:30pm 25.8 - - - - E 30 35 16 19 1014.1 - -
14/11:24pm 25.9 - - - - E 32 - 17 - - 1014.1 -
14/11:00pm 26.2 - - - - E 32 35 17 19 1014.4 - -
14/10:30pm 25.8 - - - - ESE 32 37 17 20 1014.5 - -
14/10:24pm 26.0 - - - - ESE 32 - 17 - - 1014.6 -
14/10:00pm 26.0 - - - - ESE 30 35 16 19 1014.7 - -
14/09:30pm 26.3 - - - - SE 32 35 17 19 1014.7 - -
14/09:24pm 25.9 - - - - SE 32 - 17 - - 1014.6 -
14/09:00pm 26.1 - - - - ESE 30 33 16 18 1014.6 - -
14/08:30pm 25.8 - - - - SE 28 32 15 17 1014.4 - -
14/08:24pm 26.0 - - - - SE 28 - 15 - - 1014.4 -
14/08:00pm 26.0 - - - - ESE 28 32 15 17 1014.4 - -
14/07:30pm 26.2 - - - - SE 28 32 15 17 1014.2 - -
14/07:24pm 26.1 - - - - SE 28 - 15 - - 1014.0 -
14/07:00pm 26.1 - - - - SE 28 32 15 17 1014.0 - -
14/06:30pm 26.1 - - - - SE 28 32 15 17 1013.8 - -
14/06:24pm 26.0 - - - - SE 26 - 14 - - 1013.6 -
14/06:00pm 26.1 - - - - SE 26 32 14 17 1013.5 - -
14/05:30pm 26.6 - - - - SE 26 33 14 18 1013.1 - -
14/05:24pm 26.3 - - - - SE 26 - 14 - - 1012.8 -
14/05:00pm 26.4 - - - - SE 28 32 15 17 1012.7 - -
14/04:30pm 26.6 - - - - SE 26 32 14 17 1012.3 - -
14/04:24pm 26.3 - - - - SE 26 - 14 - - 1012.1 -
14/04:00pm 26.6 - - - - SE 26 30 14 16 1012.2 - -
14/03:30pm 26.3 - - - - SE 26 30 14 16 1012.0 - -
14/03:24pm 26.3 - - - - ESE 26 - 14 - - 1011.8 -
14/03:00pm 26.3 - - - - ESE 26 32 14 17 1011.8 - -
14/02:30pm 26.4 - - - - ESE 24 28 13 15 1012.1 - -
14/02:24pm 26.3 - - - - ESE 22 - 12 - - 1012.1 -
14/02:00pm 26.4 - - - - ESE 22 28 12 15 1012.2 - -
14/01:30pm 26.3 - - - - ESE 22 26 12 14 1012.6 - -
14/01:24pm 26.6 - - - - ESE 22 - 12 - - 1012.5 -
14/01:00pm 26.5 - - - - ESE 22 28 12 15 1012.8 - -
14/12:30pm 26.3 - - - - ESE 24 28 13 15 1013.1 - -
14/12:24pm 26.4 - - - - ESE 24 - 13 - - 1013.1 -
14/12:00pm 26.5 - - - - ESE 20 26 11 14 1013.6 - -
14/11:30am 26.3 - - - - ESE 19 24 10 13 1013.9 - -
14/11:24am 26.5 - - - - ESE 19 - 10 - - 1014.0 -
14/11:00am 26.2 - - - - ESE 20 24 11 13 1014.3 - -
14/10:30am 26.3 - - - - ESE 20 24 11 13 1014.6 - -
14/10:24am 26.1 - - - - SE 20 - 11 - - 1014.4 -
14/10:00am 26.3 - - - - ESE 20 24 11 13 1014.7 - -
14/09:30am 26.3 - - - - ESE 22 26 12 14 1014.7 - -
14/09:24am 26.5 - - - - ESE 20 - 11 - - 1014.6 -
14/09:00am 26.5 - - - - ESE 22 24 12 13 1014.8 - -
14/08:30am 26.4 - - - - ESE 22 26 12 14 1014.5 - -
14/08:24am 26.4 - - - - ESE 22 - 12 - - 1014.5 -
14/08:00am 26.3 - - - - ESE 24 28 13 15 1014.6 - -
14/07:30am 26.3 - - - - ESE 24 28 13 15 1014.5 - -
14/07:24am 26.0 - - - - ESE 24 - 13 - - 1014.4 -
14/07:00am 26.1 - - - - ESE 24 28 13 15 1014.4 - -
14/06:30am 26.1 - - - - ESE 24 28 13 15 1014.0 - -
14/06:24am 26.0 - - - - ESE 24 - 13 - - 1013.9 -
14/06:00am 25.7 - - - - E 24 28 13 15 1013.7 - -
14/05:30am 25.7 - - - - ESE 28 33 15 18 1013.1 - -
14/05:24am 25.7 - - - - ESE 28 - 15 - - 1012.9 -
14/05:00am 25.6 - - - - ESE 28 33 15 18 1012.6 - -
14/04:30am 25.8 - - - - ESE 28 33 15 18 1012.2 - -
14/04:24am 25.7 - - - - ESE 28 - 15 - - 1012.1 -
14/04:00am 25.5 - - - - ESE 26 32 14 17 1012.0 - -
14/03:30am 25.7 - - - - E 26 32 14 17 1011.9 - -
14/03:24am 25.6 - - - - E 26 - 14 - - 1011.7 -
14/03:00am 25.6 - - - - E 26 32 14 17 1011.6 - -
14/02:30am 25.5 - - - - ESE 26 32 14 17 1011.7 - -
14/02:24am 25.2 - - - - ESE 26 - 14 - - 1011.6 -
14/02:00am 25.4 - - - - E 26 30 14 16 1011.8 - -
14/01:30am 25.5 - - - - E 26 30 14 16 1012.0 - -
14/01:24am 25.6 - - - - E 26 - 14 - - 1011.9 -
14/01:00am 25.6 - - - - E 26 32 14 17 1012.1 - -
14/12:30am 25.7 - - - - ESE 30 33 16 18 1012.5 - -
14/12:24am 25.8 - - - - ESE 32 - 17 - - 1012.5 -
14/12:00am 25.6 - - - - ESE 32 35 17 19 1012.7 - -
 
Date/Time
EST
Temp
°C
App
Temp
°C
Dew
Point
°C
Rel
Hum
%
Delta-T
°C
Wind Press
QNH
hPa
Press
MSL
hPa
Rain since
9am
mm
Dir  Spd
km/h
Gust
km/h
Spd
kts
Gust
kts
13/11:30pm 25.7 - - - - ESE 32 35 17 19 1013.0 - -
13/11:24pm 25.7 - - - - ESE 32 - 17 - - 1012.9 -
13/11:00pm 25.8 - - - - ESE 32 37 17 20 1013.0 - -
13/10:30pm 25.8 - - - - ESE 32 41 17 22 1013.1 - -
13/10:24pm 25.8 - - - - ESE 33 - 18 - - 1013.0 -
13/10:00pm 25.6 - - - - ESE 33 39 18 21 1012.9 - -
13/09:30pm 26.1 - - - - ESE 32 35 17 19 1012.9 - -
13/09:24pm 25.7 - - - - ESE 28 - 15 - - 1012.7 -
13/09:00pm 26.1 - - - - ESE 30 35 16 19 1012.8 - -
13/08:30pm 25.8 - - - - ESE 30 35 16 19 1012.7 - -
13/08:24pm 25.8 - - - - ESE 30 - 16 - - 1012.6 -
13/08:00pm 25.8 - - - - ESE 28 35 15 19 1012.5 - -
13/07:30pm 25.7 - - - - SE 28 32 15 17 1012.5 - -
13/07:24pm 26.0 - - - - SE 28 - 15 - - 1012.4 -
13/07:00pm 25.7 - - - - SE 28 33 15 18 1012.4 - -
13/06:30pm 25.8 - - - - SE 28 33 15 18 1012.4 - -
13/06:24pm 25.8 - - - - SE 28 - 15 - - 1012.2 -
13/06:00pm 25.7 - - - - SE 32 35 17 19 1012.0 - -
13/05:30pm 25.7 - - - - SE 32 37 17 20 1011.9 - -
13/05:24pm 25.6 - - - - SE 32 - 17 - - 1011.8 -
13/05:00pm 25.7 - - - - SSE 32 35 17 19 1011.8 - -
13/04:30pm 26.1 - - - - SE 30 35 16 19 1011.6 - -
13/04:24pm 26.1 - - - - SSE 32 - 17 - - 1011.4 -
13/04:00pm 26.0 - - - - SE 32 37 17 20 1011.4 - -
13/03:30pm 25.8 - - - - SSE 32 35 17 19 1011.2 - -
13/03:24pm 26.0 - - - - SSE 32 - 17 - - 1011.1 -
13/03:00pm 25.9 - - - - SSE 33 37 18 20 1011.2 - -
13/02:30pm 26.0 - - - - SSE 33 39 18 21 1011.1 - -
13/02:24pm 26.1 - - - - SSE 33 - 18 - - 1011.0 -
13/02:00pm 26.0 - - - - SSE 37 41 20 22 1011.3 - -
13/01:30pm 26.0 - - - - SSE 33 39 18 21 1011.8 - -
13/01:24pm 26.3 - - - - SSE 33 - 18 - - 1011.7 -
13/01:00pm 26.0 - - - - SSE 37 41 20 22 1012.1 - -
13/12:30pm 26.0 - - - - SSE 35 41 19 22 1012.5 - -
13/12:24pm 25.8 - - - - SSE 35 - 19 - - 1012.5 -
13/12:00pm 26.0 - - - - SSE 37 43 20 23 1013.0 - -
13/11:30am 26.2 - - - - SSE 37 44 20 24 1013.3 - -
13/11:24am 25.9 - - - - SSE 39 - 21 - - 1013.2 -
13/11:00am 26.1 - - - - SE 35 41 19 22 1013.7 - -
13/10:30am 26.0 - - - - SSE 33 39 18 21 1013.8 - -
13/10:24am 25.9 - - - - SE 33 - 18 - - 1013.8 -
13/10:00am 25.9 - - - - SSE 33 41 18 22 1014.0 - -
13/09:30am 25.9 - - - - SSE 33 39 18 21 1014.3 - -
13/09:24am 25.9 - - - - SE 32 - 17 - - 1014.3 -
13/09:00am 26.1 - - - - SE 32 35 17 19 1014.6 - -
13/08:30am 26.1 - - - - SE 32 37 17 20 1014.6 - -
13/08:24am 26.2 - - - - SE 33 - 18 - - 1014.4 -
13/08:00am 25.8 - - - - SE 32 35 17 19 1014.3 - -
13/07:30am 26.1 - - - - SE 32 35 17 19 1014.3 - -
13/07:24am 25.8 - - - - SE 32 - 17 - - 1014.1 -
13/07:00am 25.9 - - - - SE 33 39 18 21 1014.0 - -
13/06:30am 25.8 - - - - SE 32 35 17 19 1013.8 - -
13/06:24am 25.6 - - - - SE 32 - 17 - - 1013.7 -
13/06:00am 25.3 - - - - SE 33 41 18 22 1013.6 - -
13/05:30am 25.4 - - - - SE 33 41 18 22 1012.8 - -
13/05:24am 25.2 - - - - SE 35 - 19 - - 1012.5 -
13/05:00am 25.1 - - - - SE 33 39 18 21 1012.4 - -
13/04:30am 25.3 - - - - SE 33 39 18 21 1012.3 - -
13/04:24am 25.4 - - - - SE 33 - 18 - - 1012.2 -
13/04:00am 25.2 - - - - ESE 32 39 17 21 1012.3 - -
13/03:30am 25.3 - - - - SE 33 37 18 20 1012.2 - -
13/03:24am 25.3 - - - - SE 35 - 19 - - 1012.1 -
13/03:00am 25.3 - - - - SE 35 41 19 22 1012.4 - -
13/02:30am 25.5 - - - - SE 33 39 18 21 1012.6 - -
13/02:24am 25.5 - - - - SE 35 - 19 - - 1012.6 -
13/02:00am 25.6 - - - - SE 33 41 18 22 1012.8 - -
13/01:30am 25.4 - - - - SE 35 41 19 22 1013.0 - -
13/01:24am 25.6 - - - - SE 35 - 19 - - 1012.9 -
13/01:00am 25.5 - - - - SE 37 43 20 23 1013.2 - -
13/12:30am 25.6 - - - - SE 37 44 20 24 1013.6 - -
13/12:24am 25.4 - - - - SE 37 - 20 - - 1013.6 -
13/12:00am 25.6 - - - - SE 37 43 20 23 1014.0 - -
 
Date/Time
EST
Temp
°C
App
Temp
°C
Dew
Point
°C
Rel
Hum
%
Delta-T
°C
Wind Press
QNH
hPa
Press
MSL
hPa
Rain since
9am
mm
Dir  Spd
km/h
Gust
km/h
Spd
kts
Gust
kts
12/11:30pm 25.8 - - - - SE 39 43 21 23 1014.3 - -
12/11:24pm 25.6 - - - - SE 37 - 20 - - 1014.2 -
12/11:00pm 25.6 - - - - SE 35 43 19 23 1014.5 - -
12/10:30pm 25.9 - - - - SE 37 43 20 23 1014.7 - -
12/10:24pm 25.8 - - - - SE 37 - 20 - - 1014.6 -
12/10:00pm 25.9 - - - - SE 37 44 20 24 1014.6 - -
12/09:30pm 25.7 - - - - SE 39 44 21 24 1014.4 - -
12/09:24pm 26.0 - - - - SE 39 - 21 - - 1014.3 -
12/09:00pm 25.8 - - - - SE 35 41 19 22 1014.1 - -
12/08:30pm 26.0 - - - - SE 35 41 19 22 1013.9 - -
12/08:24pm 25.9 - - - - SE 37 - 20 - - 1013.8 -
12/08:00pm 26.0 - - - - SE 37 43 20 23 1013.9 - -
12/07:30pm 26.1 - - - - SE 35 43 19 23 1013.6 - -
12/07:24pm 25.9 - - - - SE 35 - 19 - - 1013.5 -
12/07:00pm 26.1 - - - - SE 35 43 19 23 1013.4 - -
12/06:30pm 26.0 - - - - SE 37 43 20 23 1013.2 - -
12/06:24pm 25.9 - - - - SE 35 - 19 - - 1013.0 -
12/06:00pm 26.1 - - - - SE 35 43 19 23 1012.8 - -
12/05:30pm 26.2 - - - - SSE 35 39 19 21 1012.7 - -
12/05:24pm 26.4 - - - - SSE 35 - 19 - - 1012.6 -
12/05:00pm 26.1 - - - - SE 35 39 19 21 1012.5 - -
12/04:30pm 26.2 - - - - SE 35 43 19 23 1012.2 - -
12/04:24pm 26.2 - - - - SSE 37 - 20 - - 1012.2 -
12/04:00pm 26.3 - - - - SSE 37 43 20 23 1012.3 - -
12/03:30pm 26.6 - - - - SE 33 41 18 22 1012.3 - -
12/03:24pm 26.4 - - - - SE 35 - 19 - - 1012.2 -
12/03:00pm 26.2 - - - - SE 37 43 20 23 1012.4 - -

Other Formats:

Comma delimited format used in spreadsheet applications
http://www.bom.gov.au/fwo/IDQ60801/IDQ60801.94290.axf

JavaScript Object Notation format (JSON) in row-major order
http://www.bom.gov.au/fwo/IDQ60801/IDQ60801.94290.json